Wind_Speed
26 27 26 31 36 38 36 38 42 41 40 33 25 16 18 19 22 24 28 30 29 27 26 26 22 21 11 11 8 12 15 18 19 18 16 6 10 14 18 26 28 31 26 26 28 18 19 18 11
30 25 28 32 39 37 37 40 42 44 42 35 30 23 20 20 26 26 23 22 20 23 24 22 20 19 7 8 5 10 14 17 17 18 13 9 15 20 25 22 28 30 28 30 25 19 15 15 11
27 16 31 36 39 40 39 43 45 46 40 38 36 35 34 24 25 26 22 21 21 21 23 21 17 9 4 3 5 8 13 14 17 18 8 14 22 25 27 22 23 27 22 27 23 18 13 14 13
34 9 19 38 37 41 45 48 51 49 49 43 35 34 34 31 29 29 28 24 23 22 23 20 15 5 3 1 3 8 13 17 21 17 4 14 27 29 25 20 23 21 20 20 18 16 13 13 12
18 20 35 40 40 43 49 52 53 51 52 48 45 43 41 38 34 31 32 28 24 22 25 19 13 5 3 3 3 7 11 15 18 14 5 18 32 30 27 24 18 20 20 16 16 10 13 20 17
20 36 43 43 44 48 52 54 55 51 52 49 49 48 46 43 38 36 31 31 27 23 24 17 10 6 7 7 4 6 8 13 14 11 8 15 36 35 30 27 20 16 19 16 15 10 10 17 19
29 34 39 42 46 53 55 58 59 53 54 52 48 41 43 44 41 36 36 30 24 22 20 16 9 9 10 9 4 6 10 15 17 9 10 14 26 33 32 27 21 17 20 16 13 6 10 9 11
34 37 40 46 50 55 60 61 61 49 55 56 37 45 45 42 40 36 31 31 25 22 18 14 7 12 11 11 5 6 10 13 19 13 13 8 15 32 34 35 25 19 19 11 7 4 6 8 9
40 44 45 47 51 55 59 60 57 63 58 54 33 49 52 46 43 37 32 27 25 20 15 12 5 15 16 13 8 5 7 9 17 19 17 13 10 24 39 33 29 21 17 11 10 8 9 11 9
42 45 45 47 46 51 52 62 57 64 59 59 42 41 51 54 46 37 31 26 23 19 15 11 6 16 18 17 13 8 6 11 16 20 19 20 14 22 30 29 30 21 19 14 11 5 6 6 11
42 44 46 48 49 51 55 54 47 51 53 52 45 46 47 59 50 38 31 28 23 17 13 9 7 16 20 19 16 12 11 13 18 20 17 18 17 16 20 28 27 19 18 12 6 1 6 8 8
43 45 50 49 50 53 53 51 44 40 42 48 42 43 46 54 53 39 31 28 21 19 10 7 8 16 22 20 21 19 16 15 16 17 13 16 14 12 15 16 23 24 17 12 7 3 4 15 10
45 47 50 51 49 54 53 52 43 35 37 47 49 42 45 49 56 36 31 28 20 16 12 5 10 16 28 15 23 20 16 9 10 3 2 12 17 17 14 16 18 17 14 13 7 11 11 9 6
48 52 56 56 57 55 49 48 42 44 49 44 42 47 45 59 52 33 31 29 18 13 11 8 11 19 26 24 26 18 15 17 11 12 13 10 9 12 12 11 18 15 16 20 17 5 6 4 8
51 54 60 61 61 58 57 46 43 35 34 34 42 51 50 56 43 29 26 26 21 16 11 9 11 19 24 30 30 16 28 20 15 18 18 15 17 13 12 12 22 18 16 3 7 9 2 4 5
51 57 61 62 62 64 61 41 34 25 21 24 35 35 44 51 39 31 24 24 21 21 14 10 10 15 24 34 30 27 26 23 22 22 23 23 21 15 15 18 18 10 5 3 8 6 3 5 11
54 58 60 55 64 70 63 36 31 25 20 30 33 38 44 34 37 33 26 25 22 18 16 9 11 16 22 34 37 29 26 27 26 26 25 25 20 18 18 15 16 18 16 11 11 7 6 9 11
58 58 58 60 60 64 59 51 35 24 29 32 37 44 44 26 30 36 28 25 25 20 17 12 11 16 22 30 38 32 28 29 26 27 27 24 19 19 19 17 12 12 6 10 11 6 7 9 13
63 63 64 64 63 60 59 55 43 32 35 30 21 41 32 22 31 31 25 27 24 24 18 15 11 16 21 24 36 37 31 28 29 33 30 25 23 23 20 17 18 17 20 14 16 14 13 16 18
68 67 68 69 61 55 59 48 40 32 39 26 18 29 34 38 28 33 28 27 26 24 22 18 13 12 20 24 31 39 40 31 31 35 32 26 24 22 22 22 21 20 17 17 17 26 27 22 20
74 60 65 70 51 53 55 40 41 32 23 28 36 21 32 35 33 31 33 31 26 24 21 18 13 13 21 26 28 38 41 39 33 35 32 32 27 28 25 25 24 26 22 22 26 30 27 23 24
70 70 58 55 51 43 43 44 38 35 26 33 39 36 25 33 33 29 30 30 25 23 18 16 12 11 16 31 31 33 43 42 38 33 33 33 31 28 29 25 26 22 20 26 26 23 21 23 24
55 64 55 45 40 39 41 44 39 37 28 23 32 29 28 39 27 29 29 30 22 20 15 18 12 8 8 16 34 34 38 40 36 32 36 38 38 35 31 30 29 29 26 28 26 24 23 28 26
52 53 48 45 40 37 45 38 33 28 29 28 23 26 32 27 28 32 32 31 24 19 12 17 15 9 9 12 19 35 41 40 41 36 33 40 41 41 39 38 37 37 36 34 30 30 29 27 22
48 46 45 42 41 43 38 35 30 27 31 33 27 25 31 30 31 33 30 28 27 23 14 16 14 8 10 16 17 18 26 43 42 34 35 35 40 38 39 40 39 37 38 35 34 31 27 25 24
46 45 41 43 43 36 35 35 32 31 32 30 22 17 28 32 29 25 20 43 28 25 18 14 18 5 6 1 10 19 23 30 34 40 39 40 40 40 41 37 35 34 36 38 35 33 23 25 31
41 40 44 39 37 35 31 31 35 35 34 31 30 12 25 30 34 37 39 30 28 27 18 19 16 12 3 4 8 6 1 18 29 31 34 33 36 35 35 33 35 38 39 37 31 24 27 32 35
38 42 38 33 35 35 27 23 25 34 37 30 35 24 24 30 25 31 32 27 29 26 18 19 16 18 23 14 5 5 10 11 14 23 26 27 22 28 35 33 32 30 27 36 32 26 31 32 28
39 36 32 34 33 33 25 18 27 26 22 14 4 25 32 31 25 35 38 33 26 26 19 20 15 18 20 18 14 11 7 9 14 20 28 25 24 29 26 25 32 28 27 26 24 29 27 27 28
35 31 30 31 33 31 24 15 20 20 5 6 10 18 42 48 40 36 42 36 26 25 22 19 20 22 21 20 19 18 15 12 16 19 25 20 17 30 27 22 26 29 27 28 33 27 25 29 31
Wind_Direction
356 0 8 8 4 359 354 360 7 3 360 360 357 322 302 297 292 293 291 296 298 310 317 315 314 316 278 307 322 312 329 319 315 322 323 253 218 214 189 175 173 170 172 184 171 160 162 157 166
353 358 15 8 4 349 351 357 3 5 358 360 351 339 318 307 305 309 306 309 315 322 327 321 322 320 283 290 300 318 331 320 313 319 321 193 198 172 159 154 159 168 168 164 165 169 173 180 175
351 5 358 4 2 347 351 359 1 2 2 355 351 346 341 326 318 316 321 323 328 329 330 328 324 325 286 240 299 337 331 324 330 330 338 174 184 172 163 153 163 175 170 160 178 190 186 175 180
339 358 2 1 352 351 352 358 360 1 1 357 350 345 339 332 325 324 326 328 327 333 333 329 325 280 345 265 294 356 338 339 342 349 28 162 174 172 154 164 176 157 165 167 181 200 199 195 210
22 341 333 339 349 348 352 356 360 358 357 355 353 348 344 339 331 324 321 327 329 333 331 333 320 256 246 199 280 3 356 355 358 16 96 160 171 152 156 152 153 175 182 171 187 204 217 207 213
337 329 335 341 342 348 355 351 359 356 355 353 350 348 344 338 331 324 320 325 331 329 332 332 310 234 221 190 209 26 20 21 19 31 98 153 172 165 166 158 152 160 174 182 196 212 211 200 212
328 330 330 335 345 351 350 352 351 349 354 348 343 350 345 339 331 323 320 319 322 323 324 327 301 204 196 185 193 43 56 44 34 39 84 157 180 179 170 160 155 145 147 151 162 170 217 213 226
329 330 335 341 345 345 349 348 346 344 351 352 347 359 349 341 331 324 320 317 320 318 318 324 305 191 180 180 151 58 41 52 46 54 63 102 176 187 176 165 182 188 163 175 152 183 203 229 251
328 330 334 339 344 345 348 340 338 346 346 350 347 352 350 345 337 329 325 317 314 313 310 317 267 190 177 174 148 99 48 61 54 62 67 75 140 176 176 177 180 201 188 189 184 214 227 234 234
321 324 327 331 341 341 343 341 339 342 340 344 342 328 345 347 343 332 327 320 311 308 306 302 246 188 180 171 156 152 89 86 69 72 81 86 104 150 175 180 191 196 191 167 191 187 222 208 223
313 319 323 329 332 338 340 347 335 332 335 336 332 330 332 344 342 334 329 324 315 305 300 294 221 190 180 174 171 173 130 91 84 78 71 65 84 140 152 185 195 182 200 184 149 8 273 211 232
309 312 320 324 329 331 337 340 333 332 333 327 323 321 328 335 337 333 330 324 319 306 293 285 211 186 176 178 178 179 151 112 108 79 62 66 93 107 131 161 191 192 206 220 207 308 304 289 274
304 308 311 318 324 332 332 338 341 328 318 324 327 311 322 330 334 333 332 330 327 311 309 267 214 190 176 163 193 184 171 174 165 227 200 115 109 112 143 161 173 186 206 165 158 125 83 41 5
307 310 317 320 321 326 328 335 330 334 334 331 309 310 310 326 326 333 333 328 331 324 312 275 220 203 197 190 179 176 184 171 179 191 199 156 166 130 130 136 170 171 175 179 188 256 83 28 31
306 312 316 317 318 323 326 334 332 329 332 313 309 302 312 317 325 337 342 331 336 330 324 285 242 208 201 189 184 197 187 165 159 151 166 163 169 175 168 163 166 151 132 71 333 141 279 322 22
306 310 313 313 314 316 322 333 331 318 324 298 311 308 316 322 328 343 337 333 336 328 320 303 263 222 199 191 190 190 196 189 185 180 174 170 170 163 168 173 176 180 312 12 121 207 282 329 345
303 310 310 312 314 317 325 332 331 307 297 299 307 304 319 320 332 334 339 332 332 329 313 293 275 220 206 197 198 195 205 191 195 190 184 180 181 182 185 189 208 198 191 167 167 214 269 250 290
301 307 308 308 314 316 319 321 317 303 294 284 310 299 310 326 327 330 333 328 327 327 313 288 257 238 212 207 205 195 205 206 204 202 202 197 195 191 196 192 205 217 239 237 262 344 243 295 309
298 302 301 303 307 309 311 313 310 308 299 301 340 301 306 315 322 322 327 325 323 324 317 297 259 244 223 216 212 207 201 211 209 203 201 205 207 200 206 211 209 211 229 237 249 250 271 307 318
295 300 302 305 307 300 301 308 301 300 300 300 270 288 297 314 317 317 330 319 317 320 314 300 287 249 233 225 217 212 214 212 210 206 212 212 217 211 210 213 225 226 228 233 260 270 285 300 308
294 301 302 302 300 294 299 293 292 303 291 227 284 297 293 310 314 321 327 322 321 313 303 300 274 257 236 229 226 216 220 222 212 210 220 223 225 221 219 222 224 222 232 252 272 265 274 284 299
298 298 299 296 297 283 287 275 279 286 287 275 265 271 264 303 307 326 327 330 320 308 301 290 262 255 246 227 230 228 220 225 228 221 224 226 223 227 222 230 241 231 243 257 264 275 275 288 298
296 296 295 285 281 270 269 262 270 282 282 261 264 256 264 284 308 317 318 327 321 304 307 286 271 261 278 255 232 228 226 224 220 223 227 226 224 227 228 234 246 244 255 266 269 280 274 286 292
281 285 278 275 269 260 263 271 276 278 279 277 267 263 278 281 298 304 308 310 321 307 305 286 271 249 281 278 252 228 227 223 225 231 235 227 227 233 237 242 251 251 256 264 269 274 277 279 286
278 273 270 273 264 264 269 269 269 272 275 278 287 285 276 284 286 299 312 314 320 317 303 293 270 280 278 278 258 244 227 224 221 217 226 219 225 233 238 246 248 251 255 260 270 271 272 279 284
275 264 265 263 261 268 267 272 279 278 292 300 303 288 276 276 296 282 266 295 315 322 296 276 265 273 334 157 230 239 232 228 225 227 229 230 232 246 242 247 252 255 257 263 266 264 264 279 288
256 257 255 259 264 263 263 276 291 307 309 293 291 283 263 276 279 289 294 301 302 311 289 271 265 223 239 336 108 113 244 238 224 226 232 235 236 235 237 245 259 258 259 265 263 259 277 281 281
251 253 255 257 262 261 266 283 298 302 292 277 290 279 275 290 314 309 310 304 300 304 291 267 275 255 261 280 183 195 220 231 219 228 236 234 230 239 245 251 257 259 262 260 262 268 271 274 279
249 251 255 257 259 266 271 286 301 288 260 260 278 280 266 277 294 317 308 299 298 295 282 277 270 255 252 256 221 210 192 195 188 196 217 246 251 243 237 248 254 245 251 252 246 263 264 273 271
250 252 254 256 258 265 277 302 279 224 231 177 88 219 274 279 274 301 303 290 288 291 291 286 275 264 252 254 227 211 212 220 241 235 234 256 258 240 239 249 244 244 245 254 255 265 263 274 282
Height
11041 11038 11035 11031 11031 11029 11029 11027 11024 11018 11014 11010 11008 11003 10998 10995 10991 10990 10982 10979 10976 10970 10965 10959 10955 10955 10956 10958 10957 10955 10953 10950 10947 10945 10943 10938 10941 10943 10947 10951 10955 10961 10967 10971 10976 10981 10985 10987 10990
11038 11034 11032 11030 11027 11030 11027 11023 11021 11017 11008 11008 11003 10999 10996 10993 10988 10983 10980 10976 10971 10965 10961 10956 10955 10954 10955 10957 10956 10955 10952 10949 10946 10943 10941 10937 10939 10945 10948 10952 10958 10962 10966 10969 10975 10980 10984 10986 10989
11034 11032 11029 11026 11028 11027 11023 11019 11016 11014 11011 11004 10999 10994 10990 10989 10983 10981 10975 10970 10967 10962 10958 10955 10954 10954 10955 10956 10956 10955 10951 10947 10944 10940 10937 10937 10941 10945 10948 10953 10959 10963 10966 10969 10975 10979 10983 10985 10988
11025 11024 11025 11028 11027 11025 11020 11015 11012 11008 11006 11003 10999 10996 10991 10986 10980 10974 10970 10966 10963 10960 10956 10954 10954 10955 10955 10957 10957 10955 10951 10948 10943 10939 10937 10936 10941 10945 10949 10954 10958 10962 10967 10972 10975 10979 10983 10985 10988
11025 11028 11025 11025 11023 11022 11017 11011 11008 11003 10999 10996 10992 10988 10982 10978 10974 10971 10964 10963 10961 10958 10955 10953 10952 10952 10953 10954 10954 10953 10951 10948 10943 10939 10936 10937 10941 10944 10950 10953 10959 10964 10968 10973 10976 10980 10983 10985 10987
11028 11023 11018 11019 11019 11017 11013 11009 11005 10999 10995 10991 10985 10980 10976 10971 10968 10963 10963 10958 10957 10956 10954 10951 10949 10948 10950 10952 10952 10952 10950 10947 10943 10939 10936 10937 10940 10944 10948 10953 10959 10963 10968 10973 10977 10981 10982 10984 10987
11026 11020 11017 11018 11015 11011 11009 11003 10998 10996 10993 10989 10984 10979 10975 10969 10963 10961 10954 10956 10955 10954 10951 10948 10946 10946 10949 10953 10955 10954 10952 10948 10944 10940 10938 10938 10940 10944 10950 10955 10959 10962 10968 10973 10977 10981 10983 10986 10988
11023 11021 11019 11013 11010 11004 11001 10994 10995 10994 10991 10987 10981 10976 10972 10968 10963 10958 10959 10952 10952 10950 10948 10946 10945 10947 10951 10954 10956 10958 10956 10952 10946 10943 10941 10940 10940 10943 10951 10954 10960 10964 10968 10972 10976 10980 10983 10985 10987
11019 11017 11014 11013 11010 11003 10996 10993 10990 10989 10985 10984 10981 10976 10970 10965 10960 10956 10953 10952 10948 10947 10946 10944 10943 10945 10948 10952 10956 10956 10956 10954 10950 10945 10942 10941 10941 10944 10952 10957 10961 10964 10969 10971 10974 10978 10981 10983 10984
11017 11015 11014 11012 11015 11009 11009 10990 10976 10981 10982 10978 10978 10976 10969 10963 10957 10953 10949 10948 10948 10944 10943 10941 10941 10945 10947 10949 10951 10952 10953 10954 10953 10949 10946 10944 10945 10947 10955 10959 10961 10963 10967 10968 10973 10976 10978 10980 10982
11017 11015 11012 11012 11011 11005 11002 10996 10988 10982 10980 10974 10972 10969 10964 10959 10953 10948 10946 10944 10942 10941 10940 10938 10939 10942 10945 10947 10951 10952 10951 10955 10956 10952 10951 10952 10951 10953 10956 10960 10962 10962 10966 10968 10969 10972 10975 10976 10979
11014 11012 11004 11007 11005 11003 10999 11003 11002 10984 10978 10976 10968 10964 10962 10957 10952 10945 10941 10941 10940 10937 10938 10936 10937 10939 10943 10945 10948 10949 10951 10954 10957 10956 10956 10957 10957 10959 10958 10960 10963 10964 10964 10966 10970 10973 10977 10979 10977
11011 11007 11005 11002 11006 10998 10995 10996 10989 10981 10975 10969 10960 10958 10958 10954 10950 10944 10940 10939 10938 10934 10932 10934 10935 10937 10940 10943 10946 10949 10951 10955 10954 10956 10959 10960 10960 10960 10961 10960 10961 10963 10964 10966 10969 10971 10973 10977 10974
11003 10997 10990 10992 10993 10999 10994 10989 10985 10976 10970 10963 10956 10954 10953 10952 10946 10940 10937 10939 10936 10933 10932 10931 10932 10935 10939 10943 10945 10949 10951 10953 10953 10956 10957 10959 10961 10962 10962 10962 10961 10962 10964 10966 10969 10970 10972 10973 10973
10994 10992 10984 10983 10987 10987 10989 10980 10975 10970 10968 10960 10957 10952 10952 10947 10945 10938 10936 10936 10935 10930 10929 10930 10930 10931 10935 10940 10943 10947 10951 10952 10952 10953 10955 10957 10959 10961 10961 10960 10962 10962 10965 10967 10967 10972 10973 10972 10972
10994 10988 10982 10975 10979 10982 10986 10979 10976 10972 10969 10958 10955 10952 10951 10944 10935 10935 10934 10934 10934 10930 10928 10928 10928 10929 10932 10937 10941 10944 10947 10949 10949 10951 10953 10953 10956 10958 10960 10959 10964 10964 10965 10964 10966 10970 10973 10972 10971
10987 10981 10976 10965 10964 10965 10971 10976 10971 10966 10960 10955 10952 10946 10947 10942 10934 10931 10931 10930 10931 10930 10927 10926 10925 10927 10929 10934 10937 10940 10943 10946 10947 10951 10953 10954 10955 10956 10960 10963 10964 10966 10969 10968 10968 10967 10969 10969 10968
10977 10976 10968 10965 10959 10957 10958 10961 10967 10965 10959 10956 10953 10942 10941 10937 10936 10930 10927 10927 10926 10928 10926 10924 10923 10924 10926 10929 10933 10937 10938 10941 10946 10949 10950 10951 10953 10955 10957 10961 10963 10964 10965 10966 10967 10968 10968 10967 10967
10969 10968 10962 10966 10959 10953 10950 10952 10951 10955 10953 10958 10960 10940 10934 10928 10934 10933 10925 10924 10924 10926 10926 10924 10922 10921 10923 10926 10930 10934 10936 10939 10943 10946 10947 10949 10951 10953 10955 10957 10960 10961 10962 10964 10964 10964 10964 10963 10961
10960 10960 10954 10950 10954 10947 10944 10946 10945 10949 10938 10937 10949 10945 10936 10927 10930 10931 10923 10922 10922 10925 10925 10921 10921 10919 10920 10922 10926 10930 10931 10935 10940 10943 10944 10945 10947 10951 10952 10954 10955 10955 10958 10959 10960 10959 10957 10957 10956
10944 10954 10949 10942 10946 10935 10934 10933 10935 10943 10937 10935 10935 10936 10936 10928 10928 10927 10924 10922 10921 10924 10922 10919 10918 10916 10917 10918 10920 10925 10926 10929 10934 10939 10941 10943 10944 10947 10948 10950 10951 10952 10952 10954 10956 10956 10953 10952 10951
10936 10936 10940 10936 10933 10934 10928 10923 10932 10936 10935 10921 10926 10929 10936 10934 10931 10921 10916 10916 10918 10921 10921 10916 10912 10911 10912 10915 10916 10918 10921 10925 10928 10933 10937 10938 10940 10942 10945 10945 10946 10948 10949 10951 10950 10949 10947 10947 10946
10924 10924 10929 10928 10927 10924 10922 10921 10928 10925 10929 10927 10920 10928 10935 10933 10918 10912 10913 10914 10915 10914 10919 10912 10911 10910 10910 10909 10911 10913 10915 10918 10923 10926 10931 10934 10936 10938 10941 10942 10942 10943 10943 10944 10944 10943 10942 10941 10941
10915 10914 10917 10919 10919 10919 10912 10922 10921 10922 10918 10921 10920 10918 10919 10915 10909 10907 10910 10913 10914 10910 10911 10910 10909 10908 10906 10903 10905 10907 10910 10915 10919 10920 10923 10926 10930 10933 10935 10937 10938 10938 10938 10939 10938 10938 10937 10936 10936
10907 10907 10910 10911 10907 10908 10909 10909 10915 10916 10913 10913 10913 10919 10910 10907 10903 10906 10913 10910 10911 10906 10906 10905 10906 10906 10901 10899 10899 10901 10902 10906 10909 10911 10914 10919 10923 10926 10927 10930 10932 10933 10934 10935 10934 10933 10932 10932 10931
10897 10898 10904 10901 10896 10905 10903 10900 10906 10906 10902 10900 10905 10909 10898 10899 10905 10905 10908 10906 10904 10902 10900 10902 10899 10899 10897 10895 10894 10895 10895 10893 10897 10902 10903 10911 10914 10918 10920 10923 10926 10927 10927 10928 10928 10928 10927 10926 10924
10886 10889 10888 10893 10891 10895 10899 10898 10890 10895 10895 10892 10892 10902 10894 10892 10900 10900 10902 10893 10894 10895 10895 10896 10898 10897 10893 10893 10891 10889 10887 10885 10889 10894 10896 10903 10907 10910 10912 10914 10916 10917 10919 10920 10921 10921 10921 10919 10918
10875 10875 10881 10886 10884 10884 10894 10897 10896 10892 10886 10888 10889 10893 10890 10888 10889 10891 10890 10889 10888 10890 10896 10896 10894 10891 10889 10891 10889 10885 10883 10882 10883 10888 10891 10896 10898 10901 10904 10906 10907 10910 10911 10912 10915 10915 10914 10913 10913
10863 10868 10874 10875 10877 10878 10889 10899 10893 10886 10883 10885 10886 10880 10885 10887 10885 10888 10889 10888 10888 10889 10891 10884 10885 10883 10885 10885 10887 10884 10881 10881 10882 10885 10886 10890 10892 10894 10896 10898 10900 10902 10904 10904 10906 10907 10907 10907 10906
10855 10861 10866 10868 10868 10873 10880 10893 10881 10870 10879 10879 10870 10915 10869 10884 10885 10893 10892 10892 10889 10884 10882 10882 10881 10878 10877 10878 10880 10881 10880 10879 10881 10883 10885 10886 10887 10888 10888 10890 10892 10894 10895 10896 10897 10897 10898 10899 10898